Hourly Weather Durango

Today, 8 July, Wednesday

Time Temperature Precipitation Wind Pressure Humidity
00:00 +14°C° 0 mm 1 mps 748 mmHg 95%
01:00 +14°C° 0 mm 1 mps 748 mmHg 94%
02:00 +14°C° 0 mm 1 mps 748 mmHg 94%
03:00 +14°C° 0 mm 1 mps 748 mmHg 94%
04:00 +15°C° 0 mm 1 mps 748 mmHg 91%
05:00 +16°C° 0 mm 1 mps 748 mmHg 88%
06:00 +18°C° 0 mm 1 mps 748 mmHg 81%
07:00 +21°C° 0 mm 1 mps 748 mmHg 69%
08:00 +24°C° 0 mm 1 mps 748 mmHg 57%
09:00 +27°C° 0 mm 1 mps 748 mmHg 44%
10:00 +28°C° 0 mm 1 mps 748 mmHg 42%
11:00 +30°C° 0 mm 2 mps 748 mmHg 39%
12:00 +31°C° 0 mm 2 mps 748 mmHg 36%
13:00 +31°C° 0 mm 3 mps 747 mmHg 39%
14:00 +30°C° 0 mm 3 mps 747 mmHg 42%
15:00 +30°C° 0 mm 3 mps 747 mmHg 45%
16:00 +29°C° 0 mm 3 mps 747 mmHg 51%
17:00 +27°C° 0 mm 2 mps 747 mmHg 57%
18:00 +26°C° 0 mm 2 mps 747 mmHg 63%
19:00 +24°C° 0 mm 2 mps 747 mmHg 71%
20:00 +21°C° 0 mm 2 mps 748 mmHg 79%
21:00 +19°C° 0 mm 2 mps 748 mmHg 87%
22:00 +19°C° 0 mm 1 mps 748 mmHg 89%
23:00 +19°C° 0 mm 1 mps 748 mmHg 91%

Tomorrow, 9 July, Thursday

Time Temperature Precipitation Wind Pressure Humidity
00:00 +18°C° 0 mm 1 mps 748 mmHg 92%
01:00 +18°C° 0 mm 1 mps 748 mmHg 93%
02:00 +18°C° 0 mm 1 mps 747 mmHg 94%
03:00 +16°C° 0 mm 1 mps 747 mmHg 94%
04:00 +18°C° 0 mm 1 mps 747 mmHg 91%
05:00 +19°C° 0 mm 1 mps 748 mmHg 88%
06:00 +19°C° 0 mm 1 mps 748 mmHg 85%
07:00 +21°C° 0 mm 2 mps 748 mmHg 77%
08:00 +24°C° 0 mm 2 mps 748 mmHg 70%
09:00 +26°C° 0 mm 2 mps 748 mmHg 62%
10:00 +27°C° 0 mm 2 mps 748 mmHg 59%
11:00 +28°C° 0 mm 3 mps 748 mmHg 57%
12:00 +30°C° 0 mm 3 mps 748 mmHg 54%
13:00 +29°C° 0 mm 3 mps 748 mmHg 56%
14:00 +29°C° 0 mm 3 mps 748 mmHg 58%
15:00 +28°C° 0 mm 4 mps 747 mmHg 61%
16:00 +27°C° 0.4 mm 3 mps 748 mmHg 68%
17:00 +25°C° 0.4 mm 2 mps 748 mmHg 75%
18:00 +24°C° 0.4 mm 2 mps 748 mmHg 83%
19:00 +23°C° 0.1 mm 2 mps 748 mmHg 88%
20:00 +20°C° 0.1 mm 2 mps 748 mmHg 93%
21:00 +20°C° 0.1 mm 1 mps 749 mmHg 98%
22:00 +20°C° 0 mm 1 mps 749 mmHg 97%
23:00 +20°C° 0 mm 1 mps 749 mmHg 97%

Day after tomorrow, 10 July, Friday

Time Temperature Precipitation Wind Pressure Humidity
00:00 +20°C° 0 mm 1 mps 749 mmHg 97%
01:00 +20°C° 0.1 mm 1 mps 748 mmHg 97%
02:00 +20°C° 0.1 mm 1 mps 748 mmHg 97%
03:00 +20°C° 0.1 mm 1 mps 748 mmHg 97%
04:00 +20°C° 0.1 mm 1 mps 748 mmHg 97%
05:00 +20°C° 0.1 mm 1 mps 748 mmHg 96%
06:00 +19°C° 0.1 mm 2 mps 748 mmHg 96%
07:00 +19°C° 0.2 mm 2 mps 748 mmHg 96%
08:00 +19°C° 0.2 mm 2 mps 749 mmHg 95%
09:00 +20°C° 0.2 mm 2 mps 749 mmHg 94%
10:00 +20°C° 0.2 mm 2 mps 749 mmHg 94%
11:00 +20°C° 0.2 mm 2 mps 749 mmHg 93%
12:00 +20°C° 0.2 mm 2 mps 749 mmHg 92%
13:00 +20°C° 0.1 mm 2 mps 749 mmHg 91%
14:00 +20°C° 0.1 mm 2 mps 749 mmHg 90%
15:00 +20°C° 0.1 mm 2 mps 749 mmHg 89%
16:00 +20°C° 0.1 mm 2 mps 749 mmHg 91%
17:00 +19°C° 0.1 mm 2 mps 749 mmHg 92%
18:00 +19°C° 0.1 mm 2 mps 749 mmHg 94%
19:00 +18°C° 0.1 mm 2 mps 750 mmHg 94%
20:00 +18°C° 0.1 mm 2 mps 750 mmHg 95%
21:00 +17°C° 0.1 mm 2 mps 751 mmHg 96%
22:00 +17°C° 0.1 mm 2 mps 751 mmHg 96%
23:00 +18°C° 0.1 mm 1 mps 751 mmHg 95%

11 July, Saturday

Time Temperature Precipitation Wind Pressure Humidity
00:00 +18°C° 0.1 mm 1 mps 750 mmHg 95%
01:00 +16°C° 0.1 mm 1 mps 750 mmHg 95%
02:00 +16°C° 0.1 mm 1 mps 750 mmHg 96%
03:00 +16°C° 0.1 mm 1 mps 750 mmHg 96%
04:00 +16°C° 0 mm 1 mps 750 mmHg 95%
05:00 +16°C° 0 mm 1 mps 750 mmHg 95%
06:00 +18°C° 0 mm 1 mps 750 mmHg 95%
07:00 +19°C° 0.1 mm 1 mps 750 mmHg 89%
08:00 +20°C° 0.1 mm 1 mps 750 mmHg 83%
09:00 +20°C° 0.1 mm 2 mps 751 mmHg 78%
10:00 +21°C° 0 mm 2 mps 750 mmHg 72%
11:00 +23°C° 0 mm 2 mps 750 mmHg 66%
12:00 +24°C° 0 mm 2 mps 750 mmHg 60%
13:00 +25°C° 0 mm 3 mps 750 mmHg 58%
14:00 +25°C° 0 mm 3 mps 749 mmHg 57%
15:00 +26°C° 0 mm 4 mps 749 mmHg 55%
16:00 +25°C° 0 mm 3 mps 749 mmHg 61%
17:00 +24°C° 0 mm 3 mps 749 mmHg 66%
18:00 +22°C° 0 mm 3 mps 749 mmHg 72%
19:00 +20°C° 0 mm 2 mps 749 mmHg 79%
20:00 +20°C° 0 mm 1 mps 749 mmHg 86%
21:00 +18°C° 0 mm 1 mps 749 mmHg 93%
22:00 +18°C° 0 mm 1 mps 749 mmHg 93%
23:00 +16°C° 0 mm 1 mps 749 mmHg 93%

12 July, Sunday

Time Temperature Precipitation Wind Pressure Humidity
00:00 +16°C° 0 mm 1 mps 749 mmHg 93%
01:00 +16°C° 0 mm 1 mps 748 mmHg 93%
02:00 +16°C° 0 mm 1 mps 748 mmHg 93%
03:00 +15°C° 0 mm 1 mps 748 mmHg 93%
04:00 +16°C° 0.1 mm 1 mps 748 mmHg 91%
05:00 +18°C° 0.1 mm 1 mps 748 mmHg 90%
06:00 +19°C° 0.1 mm 1 mps 748 mmHg 88%
07:00 +21°C° 0.2 mm 1 mps 748 mmHg 80%
08:00 +24°C° 0.2 mm 1 mps 748 mmHg 72%
09:00 +26°C° 0.2 mm 1 mps 748 mmHg 64%
10:00 +28°C° 0.1 mm 1 mps 748 mmHg 60%
11:00 +29°C° 0.1 mm 2 mps 748 mmHg 55%
12:00 +30°C° 0.1 mm 2 mps 748 mmHg 51%
13:00 +30°C° 0 mm 2 mps 748 mmHg 52%
14:00 +30°C° 0 mm 3 mps 747 mmHg 52%
15:00 +30°C° 0 mm 3 mps 747 mmHg 53%
16:00 +28°C° 0.4 mm 3 mps 747 mmHg 62%
17:00 +26°C° 0.4 mm 2 mps 747 mmHg 71%
18:00 +24°C° 0.4 mm 2 mps 747 mmHg 81%
19:00 +23°C° 0.4 mm 2 mps 748 mmHg 85%
20:00 +21°C° 0.4 mm 1 mps 749 mmHg 89%
21:00 +20°C° 0.4 mm 1 mps 749 mmHg 93%
22:00 +19°C° 0.1 mm 1 mps 749 mmHg 93%
23:00 +18°C° 0.1 mm 2 mps 749 mmHg 93%

13 July, Monday

Time Temperature Precipitation Wind Pressure Humidity
00:00 +17°C° 0.1 mm 2 mps 749 mmHg 93%
01:00 +17°C° 0 mm 2 mps 749 mmHg 93%
02:00 +16°C° 0 mm 2 mps 749 mmHg 92%
03:00 +16°C° 0 mm 2 mps 749 mmHg 92%
04:00 +17°C° 0 mm 2 mps 749 mmHg 91%
05:00 +17°C° 0 mm 2 mps 749 mmHg 90%
06:00 +18°C° 0 mm 2 mps 750 mmHg 89%
07:00 +20°C° 0 mm 2 mps 750 mmHg 80%
08:00 +23°C° 0 mm 2 mps 750 mmHg 71%
09:00 +25°C° 0 mm 3 mps 750 mmHg 62%
10:00 +26°C° 0 mm 3 mps 750 mmHg 59%
11:00 +26°C° 0 mm 4 mps 750 mmHg 56%
12:00 +27°C° 0 mm 4 mps 750 mmHg 54%
13:00 +27°C° 0 mm 4 mps 750 mmHg 54%
14:00 +27°C° 0 mm 4 mps 750 mmHg 55%
15:00 +26°C° 0 mm 4 mps 750 mmHg 56%
16:00 +25°C° 0 mm 4 mps 750 mmHg 59%
17:00 +24°C° 0 mm 3 mps 750 mmHg 63%
18:00 +22°C° 0 mm 3 mps 750 mmHg 66%
19:00 +20°C° 0 mm 3 mps 751 mmHg 76%
20:00 +18°C° 0 mm 2 mps 751 mmHg 85%
21:00 +16°C° 0 mm 1 mps 752 mmHg 95%
22:00 +16°C° 0 mm 1 mps 752 mmHg 95%
23:00 +15°C° 0 mm 1 mps 752 mmHg 96%
Show more